Погода в Судах

Россия / Вологодская область     59°08′48″N   37°34′38″E
темп.,
°C
ветер,
м/с
пор.,
м/с
влажн.,
%
обл.,
%
осадки,
мм/ч
давл.,
гПа
погр.,
м
5 марта, пт
пт500:00−11зсз239720 0.0 100146
03:00−12сз239754 0.0 100235
06:00−11сз239690 0.1 100385
09:00−11ссз389489 0.1 1005287
12:00−8ссз367942 0.0 1007760
15:00−7сз358021 0.0 1008791
18:00−11зюз23890 0.0 101021
21:00−11зсз399532 0.0 1012267
6 марта, сб
сб600:00−15ссз339559 0.0 101366
03:00−18сз239629 0.0 101545
06:00−19сз23980 0.0 101524
09:00−16з23960 0.0 1016101
12:00−10зюз249486 0.1 1015330
15:00−8зюз359093 0.1 1013633
18:00−9юз3794100 0.1 1010190
21:00−10ююз4109295 0.1 1007299
7 марта, вс
вс700:00−9ю51393100 0.1 1001630
03:00−6ююз61394100 1.1 996928
06:00−5ююз61295100 1.4 991851
09:00−3юз51096100 3.5 988694
12:00−6сз5992100 1.7 989754
15:00−6сз5878100 2.4 9901167
18:00−9зсз3786100 0.0 991221
21:00−12сз3689100 0.0 992123
8 марта, пн
пн800:00−12зсз3893100 0.0 992261
03:00−10ссз51094100 0.4 993548
06:00−10с51093100 0.5 995614
09:00−11с51088100 0.6 997759
12:00−11с5987100 0.1 1001811
15:00−11с5987100 0.2 1004892
18:00−13с51189100 0.1 1007624
21:00−16с41291100 0.1 1011478
9 марта, вт
вт900:00−19с3996100 0.0 1013258
03:00−23ссз369791 0.0 1015142
06:00−26ссз36960 0.0 1017125
09:00−24с35940 0.0 1018240
12:00−19ссз24900 0.0 1019406
15:00−16ссз358738 0.0 1020547
18:00−20с229359 0.0 102020
21:00−23ссв129030 0.0 102220